Location: Newark
(49.8969°N, 3.3422°E)
Time: 21:07:06
(UTC+00:00)

Vanguard 1 Rocket - Pass Details

Date: 26 January 2020
Orbit: 650 x 4226 km, 34.3° (Epoch: 22 February)

Event Time Altitude Azimuth Distance (km) Brightness Sun altitude
Rises 11:04:10 0° 244° (WSW) 4,355 11.0 20.3°
Reaches altitude 10° 11:06:45 10° 237° (WSW) 3,715 10.9 20.4°
Maximum altitude 11:16:02 40° 171° (S) 3,073 11.8 20.7°
Drops below altitude 10° 11:32:40 10° 112° (ESE) 6,534 12.2 21.1°
Sets 11:39:09 0° 106° (ESE) 7,992 12.5 21.2°
